Powrót do katalogu

STARLINK-38088

AktywnyŁącznośćSSO
NORAD 100114·PAYLOAD·🇺🇸 United States

Wystrzelony Jul 21, 2026 z Vandenberg Space Force Base

Loading…

Następne Przeloty (najbliższe 24 godziny)

TLE

ŚwieżeSource: Space-Track

Epoka: Sep 14, 2026, 11:43 UTC

1 A0114U 26166P   26257.48819681  .00199109  00000-0  13013-2 0  9993
2 A0114  97.2833 275.4879 0000970  85.1503 274.9873 15.75253544  8650

Śledź STARLINK-38088 w czasie rzeczywistym z AllMySat

Download on the App Store